Location: Newark
(48.5667°N, 7.8167°E)
Time: 09:44:47
(UTC+00:00)

ISS - Pass Details

Date: 27 September 2021
Orbit: 417 x 423 km, 51.6° (Epoch: 24 October)

Event Time Altitude Azimuth Distance (km) Brightness Sun altitude
Rises 18:09:36 0° 280° (W) 2,363 2.5 -9.7°
Reaches altitude 10° 18:11:45 10° 286° (WNW) 1,500 0.6 -10.1°
Maximum altitude 18:15:01 48° 2° (N) 562 -3.1 -10.6°
Enters shadow 18:17:35 15° 74° (ENE) 1,226 -1.9 -11.0°
